Austin, TX

12:25 AM CDT on September 20, 2017 (GMT -0500)
Austin

Weather History for KATT - October, 2013

Change the Weather History Date:

Monday, October 28, 2013

  Actual Average Record
Temperature  
Mean Temperature 74 °F 68 °F  
Max Temperature 82 °F 78 °F 89 °F (1917)
Min Temperature 66 °F 57 °F 32 °F (1957)
Degree Days  
Heating Degree Days 0 2  
Month to date heating degree days 20 20  
Since 1 July heating degree days 20 22  
Cooling Degree Days 9 5  
Month to date cooling degree days 200 208  
Year to date cooling degree days 3372 3052  
Growing Degree Days 24 (Base 50)    
Moisture  
Dew Point 65 °F    
Average Humidity 81    
Maximum Humidity 100    
Minimum Humidity 62    
Precipitation  
Precipitation T in 0.11 in 4.48 in (1960)
Month to date precipitation 8.61 3.55  
Year to date precipitation 32.21 28.63  
Snow  
Snow 0.00 in - - ()
Month to date snowfall 0.0  
Since 1 July snowfall 0.0  
Since 1 September snowfall 0.0  
Snow Depth 0.00 in    
Sea Level Pressure  
Sea Level Pressure 30.04 in    
Wind  
Wind Speed 6 mph (SE)    
Max Wind Speed 15 mph    
Max Gust Speed 25 mph    
Visibility 7 miles    
Events Fog , Rain    
T = Trace of Precipitation, MM = Missing Value Source: NWS Daily Summary

Daily Weather History Graph

Daily Weather History Graph

Search for Another Location

Airport or City:

Trip Planner

Search our weather history database for the weather conditions in past years. The results will help you decide how hot, cold, wet, or windy it might be!

Date:

Astronomy

Oct. 28, 2013 Rise Set
Actual Time 7:42 AM CDT 6:46 PM CDT
Civil Twilight 7:17 AM CDT 7:11 PM CDT
Nautical Twilight 6:49 AM CDT 7:39 PM CDT
Astronomical Twilight 6:21 AM CDT 8:07 PM CDT
Moon 2:01 AM CDT (10/28) 3:07 PM CDT (10/28)
Length of Visible Light 11h 53m
Length of Day
11h 04m
Waning Crescent, 34% of the Moon is Illuminated
Oct 28
Waning Crescent
Nov 3
New
Nov 9
First Quarter
Nov 17
Full
Nov 25
Last Quarter

Hourly Weather History & Observations

Time (CDT) Temp. Heat Index Dew Point Humidity Pressure Visibility Wind Dir Wind Speed Gust Speed Precip Events Conditions
12:51 AM 66.0 °F - 63.0 °F 90% 30.03 in 10.0 mi SE 3.5 mph - N/A   Overcast
1:51 AM 66.0 °F - 62.1 °F 87% 30.01 in 10.0 mi Calm Calm - N/A   Overcast
2:51 AM 66.9 °F - 62.1 °F 84% 30.01 in 10.0 mi SE 4.6 mph - N/A   Overcast
3:25 AM 66.0 °F - 62.1 °F 87% 30.03 in 10.0 mi Calm Calm - N/A   Overcast
3:51 AM 66.0 °F - 63.0 °F 90% 30.01 in 10.0 mi Calm Calm - N/A   Overcast
4:51 AM 66.0 °F - 63.0 °F 90% 30.01 in 9.0 mi Variable 4.6 mph - N/A   Overcast
5:42 AM 66.0 °F - 64.0 °F 93% 30.04 in 5.0 mi ESE 4.6 mph - 0.00 in Rain Light Rain
5:51 AM 66.0 °F - 64.0 °F 93% 30.02 in 5.0 mi SE 3.5 mph - 0.00 in   Overcast
6:51 AM 66.0 °F - 64.0 °F 93% 30.03 in 4.0 mi SE 3.5 mph - 0.00 in   Overcast
7:18 AM 66.0 °F - 64.0 °F 93% 30.05 in 2.0 mi Variable 3.5 mph - 0.00 in   Overcast
7:29 AM 66.0 °F - 64.0 °F 93% 30.05 in 1.8 mi ESE 3.5 mph - 0.00 in   Overcast
7:51 AM 66.9 °F - 64.9 °F 93% 30.04 in 1.0 mi SE 4.6 mph - 0.00 in   Overcast
8:07 AM 66.9 °F - 64.9 °F 93% 30.06 in 0.8 mi SE 5.8 mph - N/A   Mist
8:29 AM 66.9 °F - 64.9 °F 93% 30.07 in 0.2 mi Variable 5.8 mph - N/A Fog Fog
8:51 AM 66.9 °F - 64.9 °F 93% 30.06 in 0.2 mi SE 4.6 mph - N/A Fog Fog
9:39 AM 66.9 °F - 66.0 °F 97% 30.10 in 0.5 mi SE 5.8 mph - N/A Fog Fog
9:51 AM 66.9 °F - 66.0 °F 97% 30.09 in 0.8 mi ESE 4.6 mph - N/A   Overcast
10:00 AM 68.0 °F - 66.0 °F 93% 30.11 in 1.2 mi SSE 4.6 mph - N/A   Overcast
10:25 AM 68.0 °F - 66.0 °F 93% 30.11 in 3.0 mi Variable 5.8 mph - N/A   Overcast
10:51 AM 69.1 °F - 66.9 °F 93% 30.09 in 4.0 mi Calm Calm - N/A   Overcast
11:24 AM 70.0 °F - 66.9 °F 90% 30.11 in 7.0 mi Variable 4.6 mph - N/A   Overcast
11:51 AM 72.0 °F - 66.9 °F 84% 30.08 in 10.0 mi SSE 6.9 mph - N/A   Overcast
12:12 PM 73.0 °F - 68.0 °F 84% 30.10 in 10.0 mi SE 8.1 mph - N/A   Overcast
12:51 PM 75.0 °F - 66.9 °F 76% 30.06 in 10.0 mi SE 6.9 mph - N/A   Overcast
1:40 PM 77.0 °F - 66.0 °F 69% 30.06 in 10.0 mi South 10.4 mph 17.3 mph N/A   Scattered Clouds
1:51 PM 79.0 °F - 66.0 °F 64% 30.03 in 10.0 mi Variable 6.9 mph 18.4 mph N/A   Scattered Clouds
2:51 PM 80.1 °F 82.1 °F 66.0 °F 62% 30.00 in 10.0 mi Variable 6.9 mph 18.4 mph N/A   Scattered Clouds
3:51 PM 81.0 °F 83.0 °F 66.0 °F 60% 29.99 in 10.0 mi South 8.1 mph 20.7 mph N/A   Overcast
4:51 PM 80.1 °F 82.1 °F 66.0 °F 62% 29.97 in 10.0 mi Variable 6.9 mph - N/A   Partly Cloudy
5:51 PM 80.1 °F 82.3 °F 66.9 °F 64% 29.97 in 10.0 mi ESE 8.1 mph - N/A   Clear
6:51 PM 78.1 °F - 66.9 °F 68% 29.97 in 10.0 mi SE 6.9 mph - N/A   Clear
7:51 PM 77.0 °F - 66.0 °F 69% 30.00 in 10.0 mi SSE 9.2 mph 17.3 mph N/A   Clear
8:51 PM 75.0 °F - 64.9 °F 71% 30.02 in 10.0 mi SSE 8.1 mph 19.6 mph N/A   Clear
9:51 PM 73.9 °F - 64.9 °F 73% 30.04 in 10.0 mi SSE 12.7 mph 20.7 mph N/A   Clear
10:51 PM 72.0 °F - 64.9 °F 78% 30.05 in 10.0 mi SSE 5.8 mph - N/A   Clear
11:51 PM 72.0 °F - 66.0 °F 81% 30.05 in 10.0 mi SSE 6.9 mph - N/A   Scattered Clouds